Rifle, CO

8:35 PM MDT on March 24, 2017 (GMT -0600)
Garfield County Regional

Weather History for KRIL - September, 2012

Change the Weather History Date:

Sunday, September 2, 2012

  Actual Average Record
Temperature  
Mean Temperature 69 °F 66 °F  
Max Temperature 83 °F 84 °F 97 °F (1931)
Min Temperature 54 °F 49 °F 28 °F (1959)
Degree Days  
Heating Degree Days 0 1  
Month to date heating degree days 0 2  
Since 1 July heating degree days 2 9  
Cooling Degree Days 4 2  
Month to date cooling degree days 8 4  
Year to date cooling degree days 790 520  
Growing Degree Days 18 (Base 50)    
Moisture  
Dew Point 47 °F    
Average Humidity 52    
Maximum Humidity 77    
Minimum Humidity 26    
Precipitation  
Precipitation 0.00 in 0.04 in 0.29 in (1961)
Month to date precipitation T 0.09  
Year to date precipitation 5.67 9.06  
Sea Level Pressure  
Sea Level Pressure 30.03 in    
Wind  
Wind Speed 6 mph (SW)    
Max Wind Speed 17 mph    
Max Gust Speed 22 mph    
Visibility 10 miles    
Events      
T = Trace of Precipitation, MM = Missing Value Source: NWS Daily Summary

Daily Weather History Graph

Daily Weather History Graph

Search for Another Location

Airport or City:

Trip Planner

Search our weather history database for the weather conditions in past years. The results will help you decide how hot, cold, wet, or windy it might be!

Date:

Astronomy

Sep. 02, 2012 Rise Set
Actual Time 6:40 AM MDT 7:39 PM MDT
Civil Twilight 6:13 AM MDT 8:06 PM MDT
Nautical Twilight 5:40 AM MDT 8:39 PM MDT
Astronomical Twilight 5:06 AM MDT 9:13 PM MDT
Moon 8:29 PM MDT (9/2) 8:51 AM MDT (9/2)
Length of Visible Light 13h 53m
Length of Day
12h 58m
Waning Gibbous, 95% of the Moon is Illuminated
Sep 2
Waning Gibbous
Sep 8
Last Quarter
Sep 15
New
Sep 22
First Quarter
Sep 29
Full

Hourly Weather History & Observations

Time (MDT) Temp. Dew Point Humidity Pressure Visibility Wind Dir Wind Speed Gust Speed Precip Events Conditions
12:53 AM 64.0 °F 50.0 °F 60% 30.06 in 10.0 mi NNW 3.5 mph - N/A   Scattered Clouds
2:53 AM 61.0 °F 48.9 °F 64% 30.04 in 10.0 mi SSW 4.6 mph - N/A   Scattered Clouds
3:53 AM 57.0 °F 48.0 °F 72% 30.05 in 10.0 mi East 6.9 mph - N/A   Clear
4:53 AM 57.0 °F 48.0 °F 72% 30.05 in 10.0 mi SE 6.9 mph - N/A   Mostly Cloudy
5:53 AM 55.9 °F 48.0 °F 75% 30.06 in 10.0 mi Calm Calm - N/A   Mostly Cloudy
6:53 AM 55.0 °F 46.9 °F 74% 30.09 in 10.0 mi SE 3.5 mph - N/A   Partly Cloudy
7:53 AM 57.0 °F 48.9 °F 74% 30.11 in 10.0 mi NNE 3.5 mph - N/A   Clear
8:53 AM 63.0 °F 48.0 °F 58% 30.10 in 10.0 mi Calm Calm - N/A   Clear
9:53 AM 66.9 °F 48.9 °F 52% 30.09 in 10.0 mi Calm Calm - N/A   Partly Cloudy
10:53 AM 73.0 °F 48.0 °F 41% 30.06 in 10.0 mi Calm Calm - N/A   Clear
11:53 AM 75.9 °F 46.0 °F 35% 30.04 in 10.0 mi NW 3.5 mph - N/A   Clear
12:53 PM 79.0 °F 48.0 °F 34% 30.01 in 10.0 mi West 6.9 mph - N/A   Clear
1:53 PM 81.0 °F 43.0 °F 26% 30.00 in 10.0 mi West 13.8 mph 21.9 mph N/A   Clear
2:53 PM 81.0 °F 44.1 °F 27% 29.98 in 10.0 mi West 11.5 mph - N/A   Clear
3:53 PM 82.0 °F 44.1 °F 26% 29.97 in 10.0 mi West 12.7 mph - N/A   Clear
5:53 PM 79.0 °F 45.0 °F 30% 29.97 in 10.0 mi West 11.5 mph - N/A   Clear
6:53 PM 78.1 °F 45.0 °F 31% 29.97 in 10.0 mi WSW 10.4 mph - N/A   Clear
7:53 PM 77.0 °F 45.0 °F 32% 29.96 in 10.0 mi WSW 6.9 mph - N/A   Clear
8:53 PM 72.0 °F 46.9 °F 41% 29.98 in 10.0 mi SSE 5.8 mph - N/A   Clear
9:53 PM 70.0 °F 45.0 °F 41% 29.99 in 10.0 mi ESE 6.9 mph - N/A   Clear
10:53 PM 66.9 °F 45.0 °F 45% 29.99 in 10.0 mi ESE 5.8 mph - N/A   Clear
11:53 PM 62.1 °F 46.0 °F 56% 30.01 in 10.0 mi SSE 5.8 mph - N/A   Clear